Probability
0 0 0 0 0 0 0 0 0 0 0 0 0 0 0 0 0 0 0 0 0 0 0 0 0 2 13 40 75 95 99 99 99 100 100 100 99 99 99 100 100 99 99
0 0 0 0 0 0 0 0 0 0 0 0 0 0 0 0 0 0 0 0 0 0 0 0 0 1 7 29 63 89 98 100 100 100 100 100 100 100 100 100 100 100 99
0 0 0 0 0 0 0 0 0 0 0 0 0 0 0 0 0 0 0 0 0 0 0 0 0 0 2 14 44 77 95 100 100 100 100 100 100 100 100 100 100 100 100
0 0 0 0 0 0 0 0 0 0 0 0 0 0 0 0 0 0 0 0 0 0 0 0 0 0 0 5 25 59 86 97 100 100 100 100 100 100 100 100 100 100 100
0 0 0 0 0 0 0 0 0 0 0 0 0 0 0 0 0 0 0 0 0 0 0 0 0 0 0 1 12 39 71 91 98 100 100 100 100 100 100 100 100 100 100
0 0 0 0 0 0 0 0 0 0 0 0 0 0 0 0 0 0 0 0 0 0 0 0 0 0 0 0 4 19 48 76 92 97 99 100 100 100 100 100 100 100 100
0 0 0 0 0 0 0 0 0 0 0 0 0 0 0 0 0 0 0 0 0 0 0 0 0 0 0 0 0 6 22 49 72 85 93 97 98 99 99 99 99 100 100
0 0 0 0 0 0 0 0 0 0 0 0 0 0 0 0 0 0 0 0 0 0 0 0 0 0 0 0 0 1 6 20 42 63 76 85 92 97 98 97 98 99 100
0 0 0 0 0 0 0 0 0 0 0 0 0 0 0 0 0 0 0 0 0 0 0 0 0 0 0 0 0 0 0 5 17 36 53 68 80 87 88 89 93 98 100
0 0 0 0 0 0 0 0 0 0 0 0 0 0 0 0 0 0 0 0 0 0 0 0 0 0 0 0 0 0 0 1 5 17 36 54 66 71 71 74 81 90 95
0 0 0 0 0 0 0 0 0 0 0 0 0 0 0 0 0 0 0 0 0 0 0 0 0 0 0 0 0 0 0 0 1 8 23 41 53 59 59 61 66 74 80
0 0 0 0 0 0 0 0 0 0 0 0 0 0 0 0 0 0 0 0 0 0 0 0 0 0 0 0 0 0 0 0 0 3 10 22 40 53 59 59 56 55 58
0 0 0 0 0 0 0 0 0 0 0 0 0 0 0 0 0 0 0 0 0 0 0 0 0 0 0 0 0 0 0 0 0 0 1 6 19 40 57 62 54 44 39
0 0 0 0 0 0 0 0 0 0 0 0 0 0 0 0 0 0 0 0 0 0 0 0 0 0 0 0 0 0 0 0 0 0 0 0 4 18 41 56 53 38 29
0 0 0 0 0 0 0 0 0 0 0 0 0 0 0 0 0 0 0 0 0 0 0 0 0 0 0 0 0 0 0 0 0 0 0 0 0 4 18 35 40 31 19
0 0 0 0 0 0 0 0 0 0 0 0 0 0 0 0 0 0 0 0 0 0 0 0 0 0 0 0 0 0 0 0 0 0 0 0 0 1 5 12 19 17 11
0 0 0 0 0 0 0 0 0 0 0 0 0 0 0 0 0 0 0 0 0 0 0 0 0 0 0 0 0 0 0 0 0 0 0 0 0 0 0 2 4 5 5
0 0 0 0 0 0 0 0 0 0 0 0 0 0 0 0 0 0 0 0 0 0 0 0 0 0 0 0 0 0 0 0 0 0 0 0 0 0 0 0 0 0 1
0 0 0 0 0 0 0 0 0 0 0 0 0 0 0 0 0 0 0 0 0 0 0 0 0 0 0 0 0 0 0 0 0 0 0 0 0 0 0 0 0 0 0
0 0 0 0 0 0 0 0 0 0 0 0 0 0 0 0 0 0 0 0 0 0 0 0 0 0 0 0 0 0 0 0 0 0 0 0 0 0 0 0 0 0 0
0 0 0 0 0 0 0 0 0 0 0 0 0 0 0 0 0 0 0 0 0 0 0 0 0 0 0 0 0 0 0 0 0 0 0 0 0 0 0 0 0 0 0
0 0 0 0 0 0 0 0 0 0 0 0 0 0 0 0 0 0 0 0 0 0 0 0 0 0 0 0 0 0 0 0 0 0 0 0 0 0 0 0 0 0 0
0 0 0 0 0 0 0 0 0 0 0 0 0 0 0 0 0 0 0 0 0 0 0 0 0 0 0 0 0 0 0 0 0 0 0 0 0 0 0 0 0 0 0
0 0 0 0 0 0 0 0 0 0 0 0 0 0 0 0 0 0 0 0 0 0 0 0 0 0 0 0 0 0 0 0 0 0 0 0 0 0 0 0 0 0 0
0 0 0 0 0 0 0 0 0 0 0 0 0 0 0 0 0 0 0 0 0 0 0 0 0 0 0 0 0 0 0 0 0 0 0 0 0 0 0 0 0 0 0
0 0 0 0 0 0 0 0 0 0 0 0 0 0 0 0 0 0 0 0 0 0 0 0 0 0 0 0 0 0 0 0 0 0 0 0 0 0 0 0 0 0 0
Wind_Speed
7 7 7 6 7 7 8 9 10 12 12 13 12 13 13 13 12 11 10 23 27 26 25 24 23 23 22 21 21 25 26 27 26 25 25 25 24 24 23 23 22 22 22
6 7 8 6 6 7 8 8 11 10 10 11 13 13 14 13 11 12 12 15 23 25 24 24 23 23 22 22 20 23 27 28 28 27 26 26 25 24 24 24 23 22 22
7 8 7 6 7 8 9 9 10 8 10 11 12 13 12 12 12 14 13 11 11 19 22 22 22 22 22 22 20 20 25 28 28 27 27 26 26 26 25 24 23 23 22
8 7 7 6 7 8 7 9 7 10 10 10 11 11 11 11 14 14 12 11 9 9 14 20 21 21 20 20 19 18 21 27 27 27 28 28 27 27 27 26 24 24 23
9 7 7 6 8 7 7 9 9 9 11 11 12 12 10 11 13 13 11 11 9 9 8 15 20 20 19 19 18 17 17 23 28 28 28 29 28 27 27 27 26 25 24
9 8 7 7 8 7 6 7 9 9 9 11 13 13 11 13 11 8 9 8 8 8 9 12 11 13 19 19 18 16 15 17 24 28 27 28 29 28 27 27 26 26 25
9 9 7 7 8 7 8 9 9 11 9 9 10 12 10 10 9 4 6 6 6 8 10 12 10 9 9 18 18 18 15 14 18 24 26 26 27 28 28 27 27 26 25
10 10 9 8 9 8 8 8 10 9 9 7 8 10 8 6 3 8 7 6 5 7 10 13 12 12 11 8 13 19 16 14 14 19 24 25 26 28 28 27 26 26 26
10 10 10 9 9 8 8 9 9 9 10 8 5 6 7 7 11 5 5 5 5 7 8 10 12 14 14 9 9 13 16 14 13 13 20 24 25 26 28 27 25 24 24
10 10 10 10 9 8 9 10 8 8 10 9 7 6 7 9 9 8 4 4 7 8 8 10 12 13 12 9 11 16 16 14 13 12 14 19 23 25 28 28 26 24 22
9 11 11 10 10 10 10 10 10 9 7 8 8 8 9 8 10 10 13 8 7 6 6 9 10 10 11 9 8 11 16 14 13 12 11 14 20 25 27 28 28 27 23
7 9 12 10 10 10 11 11 10 10 9 9 9 8 8 8 7 8 11 13 12 8 8 8 9 8 8 8 10 15 15 12 12 13 12 10 13 20 25 27 29 29 27
10 11 12 10 11 11 12 12 10 10 9 10 9 8 8 9 9 10 11 12 13 10 7 6 6 8 9 6 7 16 13 13 11 13 13 11 9 12 16 21 27 30 30
11 13 13 14 15 15 14 12 10 11 9 9 11 10 9 9 9 9 10 11 12 9 6 6 6 8 5 6 11 16 9 13 12 13 13 12 9 10 12 15 22 27 29
12 14 16 17 17 16 15 12 10 10 10 10 10 10 9 9 9 9 9 9 10 12 11 5 4 5 7 8 13 9 8 13 13 13 12 12 9 10 12 13 17 23 26
13 16 17 18 18 16 13 11 10 9 10 10 9 10 9 8 7 8 8 8 8 10 11 5 6 8 10 11 15 10 9 15 12 12 11 11 8 9 12 14 16 21 24
14 15 17 18 18 16 12 9 9 9 9 9 8 8 8 8 7 6 7 7 7 8 11 10 8 8 10 11 11 9 8 7 6 10 11 10 8 8 11 14 16 19 23
13 15 16 17 17 16 12 10 10 10 9 8 8 8 7 7 8 7 6 7 7 8 9 13 10 9 10 9 10 9 7 6 4 8 11 9 7 7 10 13 15 18 21
13 14 15 16 16 14 11 10 10 11 11 11 11 10 9 8 8 8 8 6 7 8 8 9 10 8 7 7 7 7 6 4 5 5 7 6 5 6 8 12 14 17 19
12 13 14 15 15 13 8 8 10 11 12 12 12 12 12 11 10 10 9 8 8 9 8 8 7 6 5 6 4 3 3 3 3 3 4 4 4 6 8 11 14 16 17
12 12 13 15 15 13 7 7 8 11 11 12 12 12 13 18 20 16 12 10 10 8 7 7 6 5 5 4 3 2 2 2 2 1 1 1 1 2 5 7 10 13 16
11 11 12 13 15 13 19 22 14 9 9 10 11 12 13 14 19 20 23 21 18 13 10 7 6 7 7 7 6 5 3 1 1 0 1 1 2 3 3 4 8 12 14
9 10 11 12 13 17 23 21 22 10 9 9 10 11 12 15 18 7 15 19 17 21 19 10 7 8 8 8 8 7 5 3 1 2 2 1 1 2 3 4 10 12 13
8 7 9 11 12 17 25 19 20 9 7 9 10 11 12 12 16 13 11 12 10 10 14 10 7 7 8 9 7 7 6 6 4 1 1 1 1 1 2 3 10 13 13
7 7 8 9 11 15 24 20 15 5 6 8 10 12 15 11 23 24 14 14 13 10 15 19 18 15 16 16 12 6 5 3 1 0 1 0 1 0 2 2 5 12 13
7 9 10 9 10 11 21 23 15 5 6 8 8 11 19 21 24 25 14 13 14 12 12 13 12 13 10 11 14 7 5 3 2 0 1 0 1 0 2 1 2 5 8
Wind_Direction
337 333 327 325 327 329 329 327 325 322 324 321 318 317 315 311 305 303 306 306 307 307 305 303 301 298 292 286 272 245 230 223 214 208 206 203 201 197 195 193 193 192 191
332 331 325 323 327 328 326 324 317 319 320 317 315 315 309 304 301 302 301 303 304 305 304 303 301 297 294 287 281 256 235 225 218 211 206 204 201 199 196 195 194 193 193
331 330 324 324 328 326 324 324 315 321 319 317 314 311 306 303 302 301 300 296 298 303 304 306 306 301 295 288 284 271 243 229 221 214 207 204 202 199 198 196 195 194 193
329 327 321 319 322 323 324 323 324 327 320 317 314 309 305 302 300 297 295 293 295 298 308 316 315 311 301 292 287 283 256 235 224 216 209 204 201 200 199 198 195 195 194
326 322 313 314 321 319 320 323 329 322 319 318 313 306 304 299 293 292 292 292 295 304 318 324 324 324 315 304 295 289 273 244 229 221 213 206 202 200 200 199 197 195 195
323 319 309 316 318 316 316 318 319 319 314 315 312 307 300 289 282 279 286 298 306 322 335 328 325 325 326 320 311 303 290 259 235 225 217 210 205 201 200 200 198 196 195
318 314 314 315 314 313 314 314 318 317 317 319 315 314 296 274 272 291 301 298 308 338 334 331 326 324 323 324 320 317 307 288 248 228 219 214 209 204 202 201 199 197 196
318 321 318 314 310 309 309 311 316 313 317 328 317 317 314 309 341 323 295 294 319 336 331 330 321 324 321 313 314 317 320 311 282 239 221 216 213 208 206 204 201 199 197
316 312 310 310 308 304 304 305 303 311 314 311 300 302 307 315 324 276 278 304 330 321 321 319 320 318 311 310 308 312 321 325 309 268 230 216 213 212 210 205 203 201 198
315 315 314 310 306 304 300 298 308 301 301 305 302 274 279 293 296 306 304 310 306 312 311 315 314 307 305 302 300 307 314 328 325 298 256 224 213 213 213 206 202 201 201
314 316 316 309 306 304 298 293 295 290 290 288 291 289 285 280 270 285 298 307 308 294 293 302 301 299 299 299 298 305 318 328 330 316 290 247 219 216 214 206 202 200 201
312 308 312 304 301 299 296 294 289 284 284 281 280 279 281 282 284 286 289 300 302 300 294 291 292 293 295 298 301 312 322 329 337 330 314 286 240 221 217 207 202 198 199
321 315 310 305 301 295 293 291 288 285 279 276 274 275 274 272 276 278 281 290 294 298 288 282 281 291 291 295 310 327 327 334 335 333 325 305 266 231 219 210 201 198 198
314 310 312 308 302 297 295 292 288 283 279 276 277 275 273 271 270 270 274 283 292 295 285 274 288 283 297 324 316 323 318 326 331 328 323 311 279 236 219 211 199 195 195
315 318 314 310 308 303 298 296 288 282 281 279 277 276 273 272 271 269 269 271 283 295 299 285 278 297 313 306 303 304 306 312 319 318 317 312 285 237 215 206 195 190 191
318 319 319 320 320 317 307 299 296 289 285 283 280 279 281 280 278 274 273 274 272 278 285 281 278 283 289 292 294 297 297 303 306 307 310 312 289 237 212 201 192 185 185
323 325 327 329 330 333 330 319 310 303 298 297 297 298 299 300 300 296 288 285 282 281 284 288 282 281 279 280 284 284 280 278 284 298 306 311 294 239 211 198 188 183 182
327 330 333 336 342 345 348 349 344 342 336 334 333 331 327 332 327 317 311 305 299 292 286 289 288 283 275 274 274 273 274 272 270 292 301 310 294 239 210 196 187 182 181
330 335 339 340 342 345 355 6 9 7 7 4 360 354 346 344 349 338 329 326 314 308 295 286 284 280 274 270 269 267 261 257 263 273 297 307 284 232 207 196 188 183 180
335 338 339 339 340 338 348 15 14 12 9 6 5 1 351 350 355 346 343 342 328 320 314 302 290 284 282 275 261 258 263 239 247 266 302 306 262 218 200 194 190 185 181
340 337 338 340 341 339 352 38 24 11 5 1 358 355 349 355 358 1 355 356 345 335 335 331 327 319 317 326 325 307 265 258 249 240 298 290 209 198 189 192 188 181 179
336 336 337 337 340 341 3 29 32 11 1 358 352 348 343 345 354 4 359 0 358 351 352 349 341 341 341 344 337 329 312 266 249 40 9 290 178 185 176 175 180 177 176
330 333 332 335 337 336 360 29 26 17 358 353 348 345 345 345 351 356 354 356 355 356 356 355 343 341 336 338 336 331 332 329 311 349 13 339 185 180 163 168 173 178 177
324 324 323 330 334 337 351 21 28 15 353 347 342 341 339 337 340 12 357 347 350 352 349 349 344 338 337 333 334 319 305 300 285 272 75 333 312 152 146 161 177 178 177
316 318 322 326 330 330 340 4 30 1 359 345 344 349 345 345 352 10 4 349 350 354 352 354 359 0 360 355 4 351 332 299 277 183 117 330 326 43 120 143 171 176 174
319 326 327 325 320 318 331 348 19 15 4 354 348 347 347 1 2 7 8 355 355 355 346 343 349 352 351 352 7 7 340 322 319 324 87 78 314 307 121 92 130 156 162